Карточка аэропорта UIAA

Внимание!
Информация на этой странице в стадии наполнения.
Если вы не увидели какой-то информации, или заметили неточность - пожалуйста сообщите нам!
Спасибо!
Команда RU-STAFF
Название аэропортаКадала
Название аэропорта (англ.)Kadala
Превышение2272 ft. (692.5 m.)
Координаты52°1.5779999999999', 113°18.3'
Высота перехода1850m
Эшелон переходаFL100
Коды ответчика3350-3377
Зона ОрВДИркутск РПИ (UIII)
Данные METARUIAA 271000Z 29001MPS 9999 NSC M25/M28 Q1027 R29/410160 NOSIG RMK QFE711/0949
Проноз погоды (TAF)UIAA 270800Z 2709/2809 08003MPS 9999 NSC TEMPO 2709/2809 3100 BR FU
NOTAMshow/hide NOTAM
AWOS   TABLE

Информация о ВПП


Диспетчерские позиции

Позывной Наименование органа УВД Частота
UIAA_APPЧита-Подход122.0
UIAA_TWRЧита-Вышка118.1
UIAA_GNDЧита Земля118.8



Спутниковое изображение